Date String (YYYY-MM-DD hh:mm:ss) UTC,Instrument flags,Ambient pressure (hPa),Sample flow (lpm),Bypass flow (lpm),Sample temperature (°C),Ambient temperature (°C),ASC tube jacket temperature (°C),LED temperature (°C),Box temperature (°C),Sample RH (%),Span deviation,Mass concentration (μg/m³),Mass concentration (μg/m³),Mass concentration (μg/m³)
DateTimeUTC,F1_M11,P_M11,Q1_M11,Q2_M11,T1_M11,T2_M11,T3_M11,T4_M11,T5_M11,U1_M11,ZSPAN_M11,X0_M11,X2_M11,X1_M11
2023-05-13 00:00:00,,0832.0,5.00,0.00,28.5,26.9,00.0,36.9,30.1,21.0,0000.0,0001.50,0000.38,0000.24
2023-05-13 00:01:00,,0831.9,4.99,0.00,28.5,26.9,00.0,36.9,30.1,21.3,0000.0,0001.63,0000.42,0000.23
2023-05-13 00:02:00,,0832.0,5.00,0.00,28.5,26.9,00.0,36.9,30.1,21.5,0000.0,0001.70,0000.42,0000.22
2023-05-13 00:03:00,,0831.9,5.00,0.00,28.5,26.9,00.0,36.9,30.1,21.7,0000.0,0001.72,0000.41,0000.21
2023-05-13 00:04:00,,0831.9,5.00,0.00,28.5,26.9,00.0,36.9,30.1,21.3,0000.0,0001.58,0000.40,0000.20
2023-05-13 00:05:00,,0832.0,5.00,0.00,28.5,26.9,00.0,36.9,30.1,21.2,0000.0,0001.01,0000.40,0000.19
2023-05-13 00:06:00,,0832.1,5.00,0.00,28.5,26.9,00.0,36.9,30.1,21.2,0000.0,0001.01,0000.39,0000.17
2023-05-13 00:07:00,,0832.2,5.00,0.00,28.5,26.9,00.0,36.9,30.1,21.0,0000.0,0000.92,0000.40,0000.16
2023-05-13 00:08:00,,0832.2,5.00,0.00,28.5,26.9,00.0,36.9,30.1,20.8,0000.0,0000.91,0000.40,0000.15
2023-05-13 00:09:00,,0832.2,5.00,0.00,28.5,26.9,00.0,36.9,30.1,20.9,0000.0,0000.90,0000.37,0000.14
2023-05-13 00:10:00,,0832.2,5.01,0.00,28.5,26.9,00.0,36.9,30.1,21.1,0000.0,0001.46,0000.37,0000.13
2023-05-13 00:11:00,,0832.1,5.01,0.00,28.5,26.9,00.0,36.9,30.1,21.3,0000.0,0001.71,0000.38,0000.13
2023-05-13 00:12:00,,0832.1,5.00,0.00,28.5,26.9,00.0,36.9,30.1,21.5,0000.0,0001.99,0000.34,0000.13
2023-05-13 00:13:00,,0832.2,5.00,0.00,28.5,26.9,00.0,36.9,30.1,21.2,0000.0,0002.35,0000.35,0000.13
2023-05-13 00:14:00,,0832.3,5.00,0.00,28.5,26.9,00.0,36.9,30.1,21.0,0000.0,0002.36,0000.38,0000.13
2023-05-13 00:15:00,,0832.3,5.00,0.00,28.5,26.9,00.0,36.9,30.1,21.1,0000.0,0002.40,0000.39,0000.12
2023-05-13 00:16:00,,0832.3,5.00,0.00,28.5,26.9,00.0,36.9,30.1,21.2,0000.0,0002.34,0000.38,0000.12
2023-05-13 00:17:00,,0832.4,5.00,0.00,28.5,26.9,00.0,36.9,30.1,21.3,0000.0,0002.49,0000.40,0000.12
2023-05-13 00:18:00,,0832.4,5.00,0.00,28.5,26.9,00.0,36.9,30.1,21.3,0000.0,0002.45,0000.37,0000.13
2023-05-13 00:19:00,,0832.3,5.00,0.00,28.5,26.9,00.0,36.9,30.1,21.5,0000.0,0002.47,0000.37,0000.13
2023-05-13 00:20:00,,0832.3,5.00,0.00,28.5,27.0,00.0,36.9,30.1,21.8,0000.0,0002.48,0000.37,0000.13
2023-05-13 00:21:00,,0832.3,5.00,0.00,28.5,27.0,00.0,36.9,30.1,21.7,0000.0,0002.22,0000.36,0000.13
2023-05-13 00:22:00,,0832.5,5.00,0.00,28.5,27.0,00.0,36.9,30.1,21.6,0000.0,0001.66,0000.34,0000.13
2023-05-13 00:23:00,,0832.5,5.00,0.00,28.5,27.0,00.0,36.9,30.1,21.4,0000.0,0001.54,0000.35,0000.13
2023-05-13 00:24:00,,0832.5,5.00,0.00,28.5,27.0,00.0,36.9,30.1,21.1,0000.0,0000.92,0000.32,0000.13
2023-05-13 00:25:00,,0832.5,4.99,0.00,28.5,27.0,00.0,36.9,30.1,21.1,0000.0,0000.81,0000.28,0000.12
2023-05-13 00:26:00,,0832.5,5.00,0.00,28.5,27.0,00.0,36.9,30.1,21.1,0000.0,0000.77,0000.27,0000.12
2023-05-13 00:27:00,,0832.5,5.00,0.00,28.5,27.0,00.0,36.9,30.1,21.1,0000.0,0000.70,0000.24,0000.13
2023-05-13 00:28:00,,0832.5,5.00,0.00,28.5,27.0,00.0,36.9,30.1,21.2,0000.0,0001.28,0000.22,0000.12
2023-05-13 00:29:00,,0832.5,5.00,0.00,28.5,27.0,00.0,36.9,30.1,21.5,0000.0,0001.67,0000.21,0000.12
2023-05-13 00:30:00,,0832.5,5.00,0.00,28.5,26.9,00.0,36.9,30.1,22.0,0000.0,0001.63,0000.20,0000.12
2023-05-13 00:31:00,,0832.5,5.00,0.00,28.5,26.9,00.0,36.9,30.1,22.0,0000.0,0001.69,0000.21,0000.12
2023-05-13 00:32:00,,0832.6,5.00,0.00,28.5,27.0,00.0,36.9,30.1,21.8,0000.0,0001.84,0000.22,0000.12
2023-05-13 00:33:00,,0832.7,5.00,0.00,28.5,27.0,00.0,36.9,30.1,21.9,0000.0,0001.99,0000.23,0000.12
2023-05-13 00:34:00,,0832.6,5.00,0.00,28.5,26.9,00.0,36.9,30.1,21.7,0000.0,0002.01,0000.25,0000.12
2023-05-13 00:35:00,,0832.6,5.01,0.00,28.5,27.0,00.0,36.9,30.1,22.0,0000.0,0002.00,0000.25,0000.12
2023-05-13 00:36:00,,0832.6,5.00,0.00,28.5,27.0,00.0,36.9,30.1,22.0,0000.0,0002.02,0000.25,0000.12
2023-05-13 00:37:00,,0832.7,4.99,0.00,28.5,27.0,00.0,36.9,30.1,21.7,0000.0,0002.04,0000.26,0000.12
2023-05-13 00:38:00,,0832.7,4.99,0.00,28.6,27.0,00.0,36.9,30.1,22.0,0000.0,0002.04,0000.26,0000.11
2023-05-13 00:39:00,,0832.7,5.01,0.00,28.6,27.0,00.0,36.9,30.1,21.8,0000.0,0001.33,0000.27,0000.11
2023-05-13 00:40:00,,0832.7,5.01,0.00,28.6,27.0,00.0,36.9,30.1,21.8,0000.0,0001.06,0000.28,0000.11
2023-05-13 00:41:00,,0832.8,5.00,0.00,28.6,27.0,00.0,36.9,30.1,21.9,0000.0,0001.13,0000.30,0000.11
2023-05-13 00:42:00,,0832.7,5.00,0.00,28.6,27.0,00.0,36.9,30.1,21.4,0000.0,0001.06,0000.27,0000.11
2023-05-13 00:43:00,,0832.7,5.00,0.00,28.6,27.0,00.0,36.9,30.1,21.7,0000.0,0000.85,0000.26,0000.11
2023-05-13 00:44:00,,0832.8,4.99,0.00,28.6,27.0,00.0,36.9,30.1,21.5,0000.0,0001.03,0000.28,0000.11
2023-05-13 00:45:00,,0832.7,5.00,0.00,28.6,27.0,00.0,36.9,30.1,21.7,0000.0,0001.34,0000.27,0000.11
2023-05-13 00:46:00,,0832.7,5.00,0.00,28.6,27.0,00.0,36.9,30.1,21.7,0000.0,0001.42,0000.28,0000.11
2023-05-13 00:47:00,,0832.8,5.01,0.00,28.6,27.0,00.0,36.9,30.1,21.8,0000.0,0001.38,0000.27,0000.11
2023-05-13 00:48:00,,0832.7,5.01,0.00,28.6,27.0,00.0,36.9,30.1,21.8,0000.0,0001.52,0000.28,0000.12
2023-05-13 00:49:00,,0833.0,4.99,0.00,28.6,27.0,00.0,36.9,30.1,21.8,0000.0,0002.23,0000.32,0000.12
2023-05-13 00:50:00,,0832.7,5.00,0.00,28.6,26.9,00.0,36.9,30.1,21.7,0000.0,0002.24,0000.34,0000.13
2023-05-13 00:51:00,,0832.8,5.00,0.00,28.5,26.9,00.0,36.9,30.1,21.2,0000.0,0002.19,0000.35,0000.14
2023-05-13 00:52:00,,0832.8,5.01,0.00,28.5,26.9,00.0,36.9,30.1,21.3,0000.0,0002.15,0000.35,0000.14
2023-05-13 00:53:00,,0832.9,5.01,0.00,28.5,26.9,00.0,36.9,30.1,21.5,0000.0,0002.14,0000.35,0000.15
2023-05-13 00:54:00,,0833.0,5.00,0.00,28.5,26.9,00.0,36.9,30.1,21.7,0000.0,0002.17,0000.36,0000.15
2023-05-13 00:55:00,,0833.0,5.00,0.00,28.5,26.9,00.0,36.9,30.1,21.5,0000.0,0001.73,0000.33,0000.16
2023-05-13 00:56:00,,0833.0,5.01,0.00,28.5,26.9,00.0,36.9,30.1,21.3,0000.0,0001.42,0000.34,0000.17
2023-05-13 00:57:00,,0833.3,5.00,0.00,28.5,26.9,00.0,36.9,30.1,21.4,0000.0,0001.38,0000.35,0000.18
2023-05-13 00:58:00,,0833.1,5.00,0.00,28.5,26.9,00.0,36.9,30.1,21.4,0000.0,0001.42,0000.36,0000.18
2023-05-13 00:59:00,,0832.8,5.00,0.00,28.5,26.9,00.0,36.9,30.1,21.4,0000.0,0001.26,0000.35,0000.18
